TimeEST,TemperatureF,Dew PointF,Humidity,Sea Level PressureIn,VisibilityMPH,Wind Direction,Wind SpeedMPH,Gust SpeedMPH,PrecipitationIn,Events,Conditions,WindDirDegrees,DateUTC
12:15 AM,35.8,31.6,85,30.16,10.0,Calm,Calm,-,N/A,,Overcast,0,2012-12-07 05:15:00
12:35 AM,36.5,31.6,83,30.15,10.0,Calm,Calm,-,N/A,,Overcast,0,2012-12-07 05:35:00
12:55 AM,36.7,31.8,83,30.14,10.0,Calm,Calm,-,N/A,,Overcast,0,2012-12-07 05:55:00
1:15 AM,36.7,31.6,82,30.14,10.0,Calm,Calm,-,N/A,,Overcast,0,2012-12-07 06:15:00
1:35 AM,37.0,32.0,82,30.14,7.0,Calm,Calm,-,N/A,,Overcast,0,2012-12-07 06:35:00
1:55 AM,37.0,32.0,82,30.14,10.0,Calm,Calm,-,N/A,,Overcast,0,2012-12-07 06:55:00
2:15 AM,36.9,31.8,82,30.13,10.0,Calm,Calm,-,N/A,,Overcast,0,2012-12-07 07:15:00
2:35 AM,37.0,31.1,79,30.13,10.0,Calm,Calm,-,N/A,,Overcast,0,2012-12-07 07:35:00
2:55 AM,36.9,30.7,79,30.13,10.0,Calm,Calm,-,N/A,,Overcast,0,2012-12-07 07:55:00
3:15 AM,36.9,30.6,78,30.12,10.0,Calm,Calm,-,N/A,Rain,Light Rain,0,2012-12-07 08:15:00
3:35 AM,37.0,30.4,77,30.12,10.0,Calm,Calm,-,N/A,,Overcast,0,2012-12-07 08:35:00
3:55 AM,37.0,29.3,74,30.12,10.0,Calm,Calm,-,N/A,Rain,Light Rain,0,2012-12-07 08:55:00
4:15 AM,37.0,28.9,73,30.11,10.0,Calm,Calm,-,N/A,Rain,Light Rain,0,2012-12-07 09:15:00
4:35 AM,37.0,30.0,76,30.11,10.0,Calm,Calm,-,N/A,Rain,Light Rain,0,2012-12-07 09:35:00
4:55 AM,36.3,30.0,78,30.11,5.0,Calm,Calm,-,0.01,Rain,Light Rain,0,2012-12-07 09:55:00
5:15 AM,36.0,31.5,84,30.11,7.0,Calm,Calm,-,0.01,Rain,Light Rain,0,2012-12-07 10:15:00
5:35 AM,36.3,31.3,82,30.11,10.0,Calm,Calm,-,0.01,,Overcast,0,2012-12-07 10:35:00
5:55 AM,37.4,32.7,83,30.10,10.0,Calm,Calm,-,0.01,,Overcast,0,2012-12-07 10:55:00
6:15 AM,37.2,31.8,81,30.10,10.0,Calm,Calm,-,N/A,,Overcast,0,2012-12-07 11:15:00
6:35 AM,37.6,32.0,80,30.11,10.0,Calm,Calm,-,N/A,,Overcast,0,2012-12-07 11:35:00
6:55 AM,37.8,32.0,80,30.11,10.0,Calm,Calm,-,N/A,,Overcast,0,2012-12-07 11:55:00
7:15 AM,37.8,32.5,81,30.11,10.0,Calm,Calm,-,N/A,,Overcast,0,2012-12-07 12:15:00
7:35 AM,37.8,32.7,82,30.11,10.0,Calm,Calm,-,N/A,,Overcast,0,2012-12-07 12:35:00
7:55 AM,37.9,33.8,85,30.10,10.0,Calm,Calm,-,N/A,,Overcast,0,2012-12-07 12:55:00
8:15 AM,37.9,33.4,84,30.10,10.0,Calm,Calm,-,N/A,,Overcast,0,2012-12-07 13:15:00
8:35 AM,38.7,34.2,84,30.11,10.0,Calm,Calm,-,N/A,,Mostly Cloudy,0,2012-12-07 13:35:00
8:55 AM,38.8,34.3,84,30.11,10.0,Calm,Calm,-,N/A,,Scattered Clouds,0,2012-12-07 13:55:00
9:15 AM,39.4,34.0,81,30.11,10.0,Calm,Calm,-,N/A,,Mostly Cloudy,0,2012-12-07 14:15:00
9:35 AM,39.4,33.3,79,30.12,10.0,Calm,Calm,-,N/A,,Overcast,0,2012-12-07 14:35:00
9:55 AM,40.1,32.9,75,30.12,10.0,Calm,Calm,-,N/A,,Overcast,0,2012-12-07 14:55:00
10:15 AM,40.1,33.4,77,30.12,10.0,Calm,Calm,-,N/A,,Mostly Cloudy,0,2012-12-07 15:15:00
10:35 AM,40.3,33.3,76,30.11,10.0,Calm,Calm,-,N/A,,Mostly Cloudy,0,2012-12-07 15:35:00
10:55 AM,40.6,33.3,75,30.10,10.0,Calm,Calm,-,N/A,,Overcast,0,2012-12-07 15:55:00
11:15 AM,41.0,32.9,73,30.09,10.0,Calm,Calm,-,N/A,,Overcast,0,2012-12-07 16:15:00
11:35 AM,42.1,34.0,73,30.07,10.0,Calm,Calm,-,N/A,,Overcast,0,2012-12-07 16:35:00
11:55 AM,42.4,33.3,70,30.06,10.0,Calm,Calm,-,N/A,,Overcast,0,2012-12-07 16:55:00
12:15 PM,43.0,34.2,71,30.05,10.0,Calm,Calm,-,N/A,,Overcast,0,2012-12-07 17:15:00
12:35 PM,43.2,34.0,70,30.05,10.0,Calm,Calm,-,N/A,,Overcast,0,2012-12-07 17:35:00
12:55 PM,43.9,34.7,70,30.04,10.0,Calm,Calm,-,N/A,,Overcast,0,2012-12-07 17:55:00
1:15 PM,43.9,34.9,71,30.04,10.0,Calm,Calm,-,N/A,,Overcast,0,2012-12-07 18:15:00
1:35 PM,44.2,35.1,70,30.03,10.0,Calm,Calm,-,N/A,,Overcast,0,2012-12-07 18:35:00
1:55 PM,44.6,35.4,70,30.02,10.0,Calm,Calm,-,N/A,,Overcast,0,2012-12-07 18:55:00
2:15 PM,44.4,35.8,72,30.02,10.0,Calm,Calm,-,N/A,Rain,Light Rain,0,2012-12-07 19:15:00
2:35 PM,44.8,36.0,71,30.02,10.0,Calm,Calm,-,N/A,,Overcast,0,2012-12-07 19:35:00
2:55 PM,44.8,35.8,71,30.02,10.0,Calm,Calm,-,N/A,,Overcast,0,2012-12-07 19:55:00
3:15 PM,44.6,35.8,71,30.02,10.0,Calm,Calm,-,N/A,,Mostly Cloudy,0,2012-12-07 20:15:00
3:35 PM,44.8,35.2,69,30.02,10.0,Calm,Calm,-,N/A,,Scattered Clouds,0,2012-12-07 20:35:00
3:55 PM,44.6,35.2,70,30.02,10.0,Calm,Calm,-,N/A,,Mostly Cloudy,0,2012-12-07 20:55:00
4:15 PM,44.2,35.6,72,30.01,10.0,Calm,Calm,-,N/A,,Mostly Cloudy,0,2012-12-07 21:15:00
4:35 PM,43.9,37.0,77,30.01,10.0,Calm,Calm,-,N/A,,Scattered Clouds,0,2012-12-07 21:35:00
4:55 PM,43.3,37.2,79,30.01,10.0,Calm,Calm,-,N/A,,Clear,0,2012-12-07 21:55:00
5:15 PM,43.2,37.0,79,30.01,10.0,Calm,Calm,-,N/A,,Clear,0,2012-12-07 22:15:00
5:35 PM,43.3,36.3,76,30.01,10.0,Calm,Calm,-,N/A,,Clear,0,2012-12-07 22:35:00
5:55 PM,43.5,35.6,74,30.01,10.0,Calm,Calm,-,N/A,,Clear,0,2012-12-07 22:55:00
6:15 PM,43.5,35.8,74,30.01,10.0,Calm,Calm,-,N/A,,Clear,0,2012-12-07 23:15:00
6:35 PM,42.6,35.6,76,30.02,10.0,Calm,Calm,-,N/A,,Clear,0,2012-12-07 23:35:00
6:55 PM,42.1,35.6,78,30.02,10.0,Calm,Calm,-,N/A,,Scattered Clouds,0,2012-12-07 23:55:00
7:15 PM,41.7,35.4,78,30.02,10.0,Calm,Calm,-,N/A,,Scattered Clouds,0,2012-12-08 00:15:00
7:35 PM,41.4,35.6,80,30.02,10.0,Calm,Calm,-,N/A,,Clear,0,2012-12-08 00:35:00
7:55 PM,40.8,35.1,80,30.01,10.0,Calm,Calm,-,N/A,,Scattered Clouds,0,2012-12-08 00:55:00
8:15 PM,40.6,34.7,79,30.01,10.0,Calm,Calm,-,N/A,,Clear,0,2012-12-08 01:15:00
8:35 PM,40.1,34.3,80,30.00,10.0,Calm,Calm,-,N/A,,Clear,0,2012-12-08 01:35:00
8:55 PM,39.7,34.5,82,30.00,10.0,Calm,Calm,-,N/A,,Scattered Clouds,0,2012-12-08 01:55:00
9:15 PM,39.7,34.7,82,30.00,10.0,Calm,Calm,-,N/A,,Clear,0,2012-12-08 02:15:00
9:35 PM,40.1,34.7,81,30.00,10.0,Calm,Calm,-,N/A,,Scattered Clouds,0,2012-12-08 02:35:00
9:55 PM,39.9,35.1,83,29.99,10.0,Calm,Calm,-,N/A,,Overcast,0,2012-12-08 02:55:00
10:15 PM,39.9,35.8,85,29.99,10.0,Calm,Calm,-,N/A,,Overcast,0,2012-12-08 03:15:00
10:35 PM,39.9,35.8,85,29.99,10.0,Calm,Calm,-,N/A,,Mostly Cloudy,0,2012-12-08 03:35:00
10:55 PM,39.7,35.8,86,29.99,7.0,Calm,Calm,-,N/A,,Overcast,0,2012-12-08 03:55:00
11:15 PM,39.9,36.1,86,29.98,7.0,Calm,Calm,-,N/A,,Mostly Cloudy,0,2012-12-08 04:15:00
11:35 PM,39.4,36.0,88,29.97,7.0,Calm,Calm,-,N/A,,Scattered Clouds,0,2012-12-08 04:35:00
11:55 PM,39.2,36.0,88,29.97,7.0,Calm,Calm,-,N/A,,Clear,0,2012-12-08 04:55:00